Regional Weather Roundup
Issued by NWS

Home | Current Version | Previous Version | Text Only | Print | Product List | Glossary Off
Versions: 1 2 3 4 5 6 7 8 9 10 11 12 13 14 15 16 17 18 19 20 21 22 23 24 25 26 27 28 29 30 31 32 33 34 35 36 37 38 39 40 41 42 43 44 45 46 47 48 49 50

000
ASUS43 KMKX 230300
RWRWI

WISCONSIN REGIONAL WEATHER ROUNDUP
NATIONAL WEATHER SERVICE MILWAUKEE/SULLIVAN WI
1000 PM CDT FRI JUL 22 2016

NOTE: "FAIR" INDICATES FEW OR NO CLOUDS BELOW 12,000 FEET WITH NO
SIGNIFICANT WEATHER AND/OR OBSTRUCTIONS TO VISIBILITY.

WIZ001-002-006>008-014>016-023>028-230400-
NORTHWEST WISCONSIN

CITY           SKY/WX    TMP DP  RH WIND       PRES   REMARKS
SUPERIOR ARPT  CLOUDY    70  64  81 S5        29.96R
ASHLAND        CLEAR     69  65  86 SW6       29.97R
HAYWARD        CLOUDY    74  70  87 CALM      30.00R
SIREN          CLOUDY    75  70  83 CALM      29.98R
CUMBERLAND     PTCLDY    72  70  94 CALM      30.00R
RICE LAKE      PTCLDY    72  69  90 CALM      30.01R
CHETEK         PTCLDY    74  72  91 CALM      29.99R
LADYSMITH      CLEAR     73  69  86 CALM      30.01R
EAU CLAIRE     NOT AVBL
MENOMONIE      CLEAR     78  65  63 CALM      29.98R HX  80
NEW RICHMOND   CLOUDY    75  67  75 CALM      29.99R
OSCEOLA        CLOUDY    75  70  86 CALM      30.01R
$$

WIZ003>005-009-010-017-018-230400-
NORTH CENTRAL WISCONSIN

CITY           SKY/WX    TMP DP  RH WIND       PRES   REMARKS
MANITOWISH WTR CLEAR     67  67 100 CALM      30.00R
ARBOR VITAE    CLEAR     72  66  80 CALM      30.00S
WOODRUFF       CLEAR     72  66  80 CALM      30.00S
RHINELANDER    CLEAR     67  62  84 CALM      30.01S
EAGLE RIVER    CLEAR     68  62  80 CALM      30.00S
LAND O LAKES   CLEAR     66  64  91 CALM      30.01S
PHILLIPS       CLOUDY    71  69  93 CALM      29.99S
TOMAHAWK       CLEAR     68  65  91 CALM      30.01R
MEDFORD        CLEAR     68  68 100 CALM      30.00S
MERRILL        CLEAR     73  69  88 CALM      30.00S
$$

WIZ029-030-035-036-043>047-230400-
CENTRAL WISCONSIN

CITY           SKY/WX    TMP DP  RH WIND       PRES   REMARKS
WAUSAU         CLEAR     79  67  66 CALM      29.97S HX  81
MOSINEE        CLEAR     77  70  78 W5        30.00S
MARSHFIELD     CLEAR     74  67  78 CALM      30.00R
STEVENS POINT  CLEAR     72  69  91 CALM      30.00R
WAUPACA        CLEAR     77  71  82 CALM      29.97S
WAUTOMA        CLEAR     74  71  91 CALM      29.98R
WISC RAPIDS    CLEAR     73  67  81 CALM      29.99S
CAMP DOUGLAS   FOG       72  72 100 NW1       29.97S VSB 1
$$

WIZ011>013-019>022-031-037>040-048>050-230400-
NORTHEAST WISCONSIN

CITY           SKY/WX    TMP DP  RH WIND       PRES   REMARKS
ANTIGO         CLEAR     71  67  87 CALM      30.01S
SHAWANO        CLEAR     78  69  73 SW5       29.96S HX  80
OCONTO         CLEAR    N/A N/A N/A CALM      29.93S
STURGEON BAY   CLEAR     79  69  71 CALM      29.95S HX  81
GREEN BAY      CLEAR     77  72  84 W3        29.95R
MANITOWOC      NOT AVBL
APPLETON       PTCLDY    79  64  61 W6        29.96R HX  81
CLINTONVILLE   CLEAR     79  64  61 W5        29.96R HX  81
OSHKOSH        CLEAR     75  71  87 CALM      29.97R
$$

WIZ032>034-041-042-053>061-230400-
SOUTHWEST WISCONSIN

CITY           SKY/WX    TMP DP  RH WIND       PRES   REMARKS
LA CROSSE      CLEAR     84  74  71 CALM      29.96R HX  91
SPARTA         CLEAR     76  75  95 CALM      29.98R
VIROQUA        CLEAR     79  78  96 S3        30.01R HX  84
BOSCOBEL       CLEAR     80  78  94 CALM      29.98R HX  88
PRAIRIE DU CHI PTCLDY    80  76  88 CALM      29.97R HX  86
PLATTEVILLE    CLEAR     80  79  98 S3        30.00S HX  86
$$

WIZ056-057-062-063-064-067-068-230400-
SOUTH CENTRAL WISCONSIN

CITY           SKY/WX    TMP DP  RH WIND       PRES   REMARKS
REEDSBURG      CLEAR    N/A N/A N/A CALM      29.97S
BARABOO/DELLS  PTCLDY    79  76  89 CALM      29.98S HX  83
LONE ROCK      NOT AVBL
MINERAL POINT  PTCLDY    81  79  94 CALM      30.01R HX  89
MADISON        PTCLDY    79  76  90 CALM      29.98R HX  83
MIDDLETON      CLEAR     79  79  98 CALM      29.99S HX  85
WATERTOWN      CLEAR     78  78 100 CALM      29.98R HX  81
MONROE         MOCLDY    81  77  89 SW5       30.00R HX  88
JANESVILLE     NOT AVBL
$$

WIZ051-052-058>065-066-070>072-230400-
SOUTHEAST WISCONSIN

CITY           SKY/WX    TMP DP  RH WIND       PRES   REMARKS
MILWAUKEE      PTCLDY    79  71  76 S3        29.98R HX  82
WAUKESHA       PTCLDY    73  70  88 CALM      30.00R
MILWAUKEE/TIMM CLEAR     79  64  61 CALM      29.99R HX  81
RACINE         CLEAR     78  71  79 S6        30.00R HX  80
BURLINGTON     CLEAR     77  75  92 CALM      29.99R
KENOSHA        CLEAR     81  73  76 S5        29.99R HX  86
FOND DU LAC    CLEAR     78  74  87 SW5       29.97R HX  81
SHEBOYGAN      CLEAR     73  70  90 CALM      29.97R
WEST BEND      CLEAR     73  70  88 CALM      29.99R
JUNEAU         CLEAR     78  74  88 CALM      30.00R
$$

LSZ147-162-230400-
LAKE SUPERIOR

STATION/POSITION TIME  TEMP    WIND        PRES    WAVE
                       AIR SEA DIR/SP/G            HT/PER
                 (UTC) (F)     (DEG/KT/KT) (MB)    (FT/S)
W MID LAKE BUOY  0150   65 58  250/  6/  8 1012.4F   1
DEVILS ISLAND    0200   79     230/  7/  8 1013.0F
PORT WING        0200   75     290/  3/  5 1013.5F
SAXON HARBOR     0200   74     210/  3/  5 1013.2
$$

LMZ867-665-643>646-230400-
LAKE MICHIGAN

STATION/POSITION TIME  TEMP    WIND        PRES    WAVE
                       AIR SEA DIR/SP/G            HT/PER
                 (UTC) (F)     (DEG/KT/KT) (MB)    (FT/S)
CHAMBERS ISLAND  0200   76      CALM  /  5 1013.5R
S GREEN BAY BUOY 0200   78 75  230/  6/  6   N/A
N MID LAKE BUOY  0150   70 68  230/ 12/ 14 1012.4R   2/ 5
NORTHPORT PIER   0200   78     230/  5/  6 1013.2R
KEWAUNEE LAKESHO 0200           CALM  /  1   N/A
SHEBOYGAN LAKESH 0200   68     180/  8/  9 1014.6R
PORT WASHINGTON  0200   72     240/  3/  4 1015.2R
MILWAUKEE LAKESH 0210   71      50/  2/  3   N/A
S MID LAKE BUOY  0150   74 74  160/  4/  6 1014.2R   0
KENOSHA   LAKESH 0200   77     180/  8/  9 1014.2S
$$

TC  - TEMPERATURE IN CELSIUS
VSB - VISIBILITY IN STATUTE MILES
WCI - WIND CHILL INDEX
HX  - HEAT INDEX




USA.gov is the U.S. government's official web portal to all federal, state and local government web resources and services.